Overview Statistics Trail Chart Weather Telemetry Raw packets
 

This is the latest recevied weather packets stored in our database for station/object DC1MPP-9. If no packets are shown the sender has not sent any weather packets the latest 10 day(s).

<< 66 67 68 69 70 71 72 >>
Time Temp. Humidity Pressure Rain* Wind** Luminosity Snow
1788092960 29.44° C 43% 959 hPa - - - -
1788092719 28.89° C 44% 959 hPa - - - -
1788092478 28.89° C 46% 959 hPa - - - -
1788092237 30° C 42% 959 hPa - - - -
1788091996 30° C 40% 959 hPa - - - -
1788091514 30° C 43% 959 hPa - - - -
1788091273 29.44° C 49% 959 hPa - - - -
1788091032 28.89° C 45% 959 hPa - - - -
1788090791 28.89° C 45% 959 hPa - - - -
1788090308 28.33° C 53% 959 hPa - - - -
1788089585 28.33° C 45% 959 hPa - - - -
1788089344 28.89° C 52% 959 hPa - - - -
1788089103 28.89° C 50% 959 hPa - - - -
1788088862 28.33° C 47% 959 hPa - - - -
1788088621 28.33° C 44% 959 hPa - - - -
1788088380 28.33° C 45% 959 hPa - - - -
1788087898 28.89° C 47% 959 hPa - - - -
1788087657 30° C 48% 959 hPa - - - -
1788087175 30° C 46% 959 hPa - - - -
1788086933 29.44° C 44% 960 hPa - - - -
1788086692 30° C 45% 960 hPa - - - -
1788086451 30° C 46% 960 hPa - - - -
1788086210 29.44° C 51% 960 hPa - - - -
1788085969 30° C 48% 960 hPa - - - -
1788085728 30° C 49% 960 hPa - - - -

* Rain since midnight (hover to see other rain measurements)
** Current wind speed in m/s (hover to see current wind gust speed)